TPC825 NZRC-NZQN

Flight info

Callsign TPC825
Flight time N/A
Altitude 9000
Route HOBAY DCT NZMO DCT 452506S1674243E DCT MORNU DCT SLAKE DCT ASADE DCT SUBAY
Aircraft C208/L-SDFGR/C

Departure

Time N/A
Airport Ryan's Creek Aerodrome (NZRC)

Arrival

Time 2026-05-03 21:01
Airport Queenstown Airport (NZQN)
Time Latitude Longitude Altitude Speed Heading
2026-05-03 20:15 -46.31892 167.92553 8542 ft 181 kts 345°
2026-05-03 20:15 -46.30679 167.92122 8541 ft 181 kts 345°
2026-05-03 20:15 -46.29453 167.91685 8542 ft 182 kts 346°
2026-05-03 20:15 -46.28223 167.91247 8542 ft 182 kts 345°
2026-05-03 20:16 -46.26988 167.90809 8540 ft 182 kts 346°
2026-05-03 20:16 -46.25771 167.90377 8540 ft 182 kts 345°
2026-05-03 20:16 -46.24546 167.89942 8541 ft 181 kts 346°
2026-05-03 20:16 -46.23318 167.89506 8541 ft 182 kts 346°
2026-05-03 20:17 -46.22091 167.89071 8541 ft 181 kts 345°
2026-05-03 20:17 -46.20863 167.88635 8542 ft 181 kts 346°
2026-05-03 20:17 -46.19636 167.88200 8540 ft 181 kts 345°
2026-05-03 20:17 -46.18419 167.87770 8541 ft 181 kts 346°
2026-05-03 20:18 -46.17190 167.87334 8541 ft 181 kts 346°
2026-05-03 20:18 -46.15962 167.86901 8541 ft 181 kts 345°
2026-05-03 20:18 -46.14733 167.86465 8542 ft 181 kts 346°
2026-05-03 20:18 -46.13508 167.86032 8541 ft 182 kts 345°
2026-05-03 20:19 -46.12296 167.85604 8542 ft 182 kts 346°
2026-05-03 20:19 -46.11064 167.85168 8542 ft 182 kts 345°
2026-05-03 20:19 -46.09829 167.84733 8541 ft 182 kts 346°
2026-05-03 20:19 -46.08593 167.84296 8539 ft 183 kts 346°
2026-05-03 20:20 -46.07373 167.83866 8540 ft 182 kts 345°
2026-05-03 20:20 -46.06143 167.83432 8541 ft 182 kts 346°
2026-05-03 20:20 -46.04907 167.82996 8541 ft 182 kts 345°
2026-05-03 20:20 -46.03677 167.82564 8541 ft 182 kts 346°
2026-05-03 20:21 -46.02467 167.82137 8542 ft 182 kts 346°
2026-05-03 20:21 -46.01238 167.81701 8541 ft 181 kts 345°
2026-05-03 20:21 -46.00004 167.81267 8540 ft 182 kts 346°
2026-05-03 20:21 -45.98774 167.80837 8541 ft 182 kts 346°
2026-05-03 20:22 -45.97546 167.80407 8541 ft 182 kts 345°
2026-05-03 20:22 -45.96319 167.79976 8541 ft 181 kts 346°
2026-05-03 20:22 -45.95104 167.79549 8542 ft 182 kts 346°
2026-05-03 20:22 -45.93869 167.79116 8542 ft 182 kts 346°
2026-05-03 20:23 -45.92652 167.78688 8543 ft 182 kts 346°
2026-05-03 20:23 -45.91424 167.78259 8542 ft 182 kts 346°
2026-05-03 20:23 -45.90194 167.77827 8543 ft 182 kts 346°
2026-05-03 20:23 -45.88955 167.77393 8539 ft 182 kts 345°
2026-05-03 20:24 -45.87722 167.76961 8541 ft 182 kts 346°
2026-05-03 20:24 -45.86508 167.76536 8540 ft 182 kts 346°
2026-05-03 20:24 -45.85276 167.76106 8542 ft 182 kts 346°
2026-05-03 20:24 -45.84047 167.75675 8542 ft 182 kts 346°
2026-05-03 20:25 -45.82816 167.75245 8542 ft 182 kts 346°
2026-05-03 20:25 -45.81586 167.74815 8541 ft 182 kts 346°
2026-05-03 20:25 -45.80353 167.74384 8542 ft 182 kts 346°
2026-05-03 20:25 -45.79136 167.73960 8541 ft 182 kts 346°
2026-05-03 20:26 -45.77897 167.73527 8541 ft 183 kts 346°
2026-05-03 20:26 -45.76660 167.73097 8542 ft 183 kts 346°
2026-05-03 20:26 -45.75424 167.72665 8542 ft 183 kts 346°
2026-05-03 20:26 -45.74184 167.72239 8540 ft 183 kts 346°
2026-05-03 20:27 -45.72948 167.71805 8539 ft 183 kts 345°
2026-05-03 20:27 -45.71713 167.71373 8539 ft 182 kts 346°
2026-05-03 20:27 -45.70480 167.70943 8540 ft 182 kts 346°
2026-05-03 20:27 -45.69257 167.70519 8540 ft 182 kts 346°
2026-05-03 20:28 -45.68022 167.70089 8540 ft 182 kts 346°
2026-05-03 20:28 -45.66805 167.69666 8541 ft 182 kts 346°
2026-05-03 20:28 -45.65571 167.69238 8541 ft 182 kts 346°
2026-05-03 20:28 -45.64340 167.68810 8542 ft 182 kts 346°
2026-05-03 20:29 -45.63109 167.68383 8540 ft 182 kts 346°
2026-05-03 20:29 -45.61879 167.67956 8540 ft 182 kts 346°
2026-05-03 20:29 -45.60646 167.67529 8541 ft 182 kts 346°
2026-05-03 20:29 -45.59431 167.67108 8542 ft 182 kts 346°
2026-05-03 20:30 -45.58203 167.66682 8542 ft 182 kts 346°
2026-05-03 20:30 -45.56967 167.66255 8542 ft 182 kts 346°
2026-05-03 20:30 -45.55739 167.65829 8540 ft 182 kts 346°
2026-05-03 20:30 -45.54509 167.65402 8540 ft 182 kts 346°
2026-05-03 20:31 -45.53258 167.65189 8540 ft 183 kts
2026-05-03 20:31 -45.52023 167.65625 8540 ft 184 kts 16°
2026-05-03 20:31 -45.50835 167.66200 8555 ft 182 kts 34°
2026-05-03 20:31 -45.49949 167.66862 8534 ft 183 kts 22°
2026-05-03 20:32 -45.48936 167.67396 8533 ft 184 kts 19°
2026-05-03 20:32 -45.47727 167.68008 8533 ft 184 kts 19°
2026-05-03 20:32 -45.46543 167.68637 8535 ft 184 kts 20°
2026-05-03 20:33 -45.45347 167.69285 8535 ft 184 kts 20°
2026-05-03 20:33 -45.44147 167.69934 8536 ft 184 kts 20°
2026-05-03 20:33 -45.42951 167.70607 8536 ft 184 kts 26°
2026-05-03 20:33 -45.41965 167.71760 8542 ft 185 kts 51°
2026-05-03 20:34 -45.41372 167.73385 8543 ft 188 kts 73°
2026-05-03 20:34 -45.41012 167.75196 8541 ft 192 kts 75°
2026-05-03 20:34 -45.40646 167.77032 8541 ft 194 kts 74°
2026-05-03 20:34 -45.40276 167.78858 8542 ft 194 kts 74°
2026-05-03 20:35 -45.39901 167.80711 8542 ft 195 kts 74°
2026-05-03 20:35 -45.39523 167.82578 8542 ft 196 kts 74°
2026-05-03 20:35 -45.39273 167.83812 8542 ft 196 kts 74°
2026-05-03 20:35 -45.38894 167.85674 8541 ft 196 kts 74°
2026-05-03 20:36 -45.38391 167.88149 8541 ft 196 kts 74°
2026-05-03 20:36 -45.38013 167.90010 8541 ft 195 kts 74°
2026-05-03 20:36 -45.37884 167.90643 8540 ft 193 kts 74°
2026-05-03 20:36 -45.37637 167.91857 8542 ft 192 kts 74°
2026-05-03 20:37 -45.37262 167.93695 8542 ft 194 kts 74°
2026-05-03 20:37 -45.36888 167.95533 8541 ft 193 kts 74°
2026-05-03 20:37 -45.36514 167.97362 8541 ft 191 kts 74°
2026-05-03 20:37 -45.36147 167.99160 8541 ft 192 kts 74°
2026-05-03 20:38 -45.35771 168.00997 8540 ft 194 kts 74°
2026-05-03 20:38 -45.35325 168.02819 8542 ft 195 kts 71°
2026-05-03 20:38 -45.34898 168.04650 8542 ft 195 kts 72°
2026-05-03 20:38 -45.34472 168.06464 8542 ft 196 kts 71°
2026-05-03 20:39 -45.34033 168.08302 8542 ft 196 kts 71°
2026-05-03 20:39 -45.33592 168.10140 8543 ft 196 kts 71°
2026-05-03 20:39 -45.33150 168.11980 8542 ft 196 kts 71°
2026-05-03 20:39 -45.32710 168.13815 8540 ft 196 kts 71°
2026-05-03 20:40 -45.32275 168.15627 8542 ft 196 kts 71°
2026-05-03 20:40 -45.32116 168.16289 8542 ft 196 kts 71°
2026-05-03 20:41 -45.32080 168.16438 8540 ft 196 kts 71°
2026-05-03 20:41 -45.31467 168.18173 8441 ft 199 kts 52°
2026-05-03 20:41 -45.30487 168.19591 8306 ft 203 kts 44°
2026-05-03 20:42 -45.29469 168.20990 8163 ft 203 kts 44°
2026-05-03 20:42 -45.28470 168.22373 8010 ft 197 kts 44°
2026-05-03 20:42 -45.27496 168.23725 7860 ft 194 kts 44°
2026-05-03 20:42 -45.26534 168.25057 7716 ft 192 kts 44°
2026-05-03 20:43 -45.25582 168.26373 7597 ft 190 kts 44°
2026-05-03 20:43 -45.24643 168.27659 7465 ft 189 kts 44°
2026-05-03 20:43 -45.23995 168.28560 7379 ft 189 kts 44°
2026-05-03 20:43 -45.23056 168.29877 7259 ft 189 kts 44°
2026-05-03 20:44 -45.22126 168.31154 7239 ft 183 kts 44°
2026-05-03 20:44 -45.21222 168.32396 7239 ft 179 kts 44°
2026-05-03 20:44 -45.20330 168.33628 7238 ft 178 kts 44°
2026-05-03 20:44 -45.19444 168.34849 7238 ft 176 kts 44°
2026-05-03 20:45 -45.18583 168.36038 7238 ft 173 kts 44°
2026-05-03 20:45 -45.17717 168.37226 7237 ft 174 kts 43°
2026-05-03 20:45 -45.16844 168.38424 7240 ft 174 kts 44°
2026-05-03 20:45 -45.16311 168.39162 7240 ft 175 kts 44°
2026-05-03 20:46 -45.15796 168.39890 7241 ft 175 kts 46°
2026-05-03 20:46 -45.15079 168.41291 7238 ft 175 kts 56°
2026-05-03 20:46 -45.14392 168.42725 7240 ft 175 kts 56°
2026-05-03 20:46 -45.13705 168.44155 7241 ft 176 kts 56°
2026-05-03 20:47 -45.13012 168.45590 7241 ft 176 kts 55°
2026-05-03 20:47 -45.12328 168.47010 7192 ft 179 kts 56°
2026-05-03 20:47 -45.11626 168.48464 7185 ft 178 kts 56°
2026-05-03 20:47 -45.10930 168.49906 7184 ft 177 kts 55°
2026-05-03 20:48 -45.10237 168.51339 7184 ft 176 kts 56°
2026-05-03 20:48 -45.09547 168.52767 7185 ft 176 kts 55°
2026-05-03 20:48 -45.08856 168.54197 7185 ft 175 kts 56°
2026-05-03 20:48 -45.08164 168.55625 7185 ft 175 kts 55°
2026-05-03 20:49 -45.07473 168.57053 7185 ft 175 kts 56°
2026-05-03 20:49 -45.06793 168.58457 7186 ft 175 kts 55°
2026-05-03 20:49 -45.06104 168.59879 7187 ft 175 kts 56°
2026-05-03 20:49 -45.05414 168.61301 7187 ft 175 kts 55°
2026-05-03 20:50 -45.04648 168.62629 7178 ft 175 kts 41°
2026-05-03 20:50 -45.03748 168.63783 7179 ft 174 kts 43°
2026-05-03 20:50 -45.02917 168.65056 7075 ft 180 kts 52°
2026-05-03 20:50 -45.02372 168.66721 6704 ft 195 kts 72°
2026-05-03 20:51 -45.01552 168.68146 6710 ft 183 kts 29°
2026-05-03 20:51 -45.00397 168.68769 6833 ft 173 kts 19°
2026-05-03 20:51 -44.99356 168.69511 6963 ft 168 kts 35°
2026-05-03 20:51 -44.98472 168.70565 7090 ft 165 kts 42°
2026-05-03 20:52 -44.97633 168.71667 7172 ft 166 kts 42°
2026-05-03 20:52 -44.96773 168.72788 7173 ft 170 kts 42°
2026-05-03 20:52 -44.95892 168.73925 7175 ft 172 kts 42°
2026-05-03 20:52 -44.95014 168.75058 7175 ft 173 kts 42°
2026-05-03 20:53 -44.94121 168.76208 7175 ft 174 kts 42°
2026-05-03 20:53 -44.93223 168.77364 7176 ft 174 kts 42°
2026-05-03 20:53 -44.92325 168.78519 7178 ft 175 kts 42°
2026-05-03 20:53 -44.91331 168.79511 7081 ft 179 kts 21°
2026-05-03 20:54 -44.90116 168.79551 7027 ft 176 kts 336°
2026-05-03 20:54 -44.89736 168.76291 6616 ft 168 kts 265°
2026-05-03 20:54 -44.89865 168.74781 6966 ft 155 kts 262°
2026-05-03 20:55 -44.90245 168.73317 6980 ft 160 kts 231°
2026-05-03 20:55 -44.91137 168.72412 7040 ft 163 kts 210°
2026-05-03 20:55 -44.92193 168.71667 6930 ft 172 kts 209°
2026-05-03 20:55 -44.93217 168.70840 7025 ft 168 kts 214°
2026-05-03 20:56 -44.94182 168.69884 6968 ft 172 kts 219°
2026-05-03 20:56 -44.95132 168.68874 6957 ft 171 kts 218°
2026-05-03 20:56 -44.96074 168.67877 6921 ft 169 kts 219°
2026-05-03 20:56 -44.97140 168.67087 6576 ft 179 kts 199°
2026-05-03 20:57 -44.98387 168.66781 6289 ft 180 kts 187°
2026-05-03 20:57 -44.99599 168.66660 6078 ft 172 kts 186°
2026-05-03 20:57 -45.00809 168.66482 5638 ft 178 kts 191°
2026-05-03 20:57 -45.02014 168.66095 5219 ft 179 kts 196°
2026-05-03 20:58 -45.03211 168.65673 4859 ft 177 kts 196°
2026-05-03 20:58 -45.04389 168.65304 4701 ft 166 kts 182°
2026-05-03 20:58 -45.05453 168.65846 4332 ft 174 kts 144°
2026-05-03 20:58 -45.06155 168.67269 3868 ft 181 kts 102°
2026-05-03 20:59 -45.06245 168.68981 3640 ft 170 kts 90°
2026-05-03 20:59 -45.05787 168.69878 4191 ft 107 kts 353°
2026-05-03 20:59 -45.04917 168.69325 2971 ft 172 kts 327°
2026-05-03 20:59 -45.03846 168.69131 2683 ft 140 kts 20°
2026-05-03 21:00 -45.03073 168.69741 2201 ft 122 kts 37°
2026-05-03 21:00 -45.02683 168.70309 1855 ft 117 kts 51°
2026-05-03 21:00 -45.02321 168.71609 1513 ft 99 kts 78°
2026-05-03 21:00 -45.02205 168.72336 1385 ft 92 kts 76°
2026-05-03 21:01 -45.02107 168.72903 1307 ft 85 kts 77°
2026-05-03 21:01 -45.01983 168.73692 1195 ft 79 kts 77°
2026-05-03 21:01 -45.01886 168.74299 1178 ft 33 kts 78°
2026-05-03 21:01 -45.01837 168.74627 1169 ft 39 kts 81°
2026-05-03 21:02 -45.01887 168.74784 1170 ft 22 kts 224°
2026-05-03 21:02 -45.01934 168.74539 1171 ft 31 kts 257°
2026-05-03 21:02 -45.01966 168.74355 1175 ft 11 kts 255°
2026-05-03 21:02 -45.01970 168.74327 1174 ft 11 kts 259°
2026-05-03 21:03 -45.01976 168.74284 1175 ft 1 kts 261°
2026-05-03 21:03 -45.02003 168.74226 1174 ft 12 kts 175°
2026-05-03 21:03 -45.02099 168.74272 1173 ft 11 kts 162°
2026-05-03 21:03 -45.02150 168.74260 1171 ft 7 kts 251°
2026-05-03 21:04 -45.02132 168.74190 1171 ft 8 kts 290°
2026-05-03 21:04 -45.02127 168.74169 1172 ft 1 kts 287°
2026-05-03 21:04 -45.02125 168.74160 1172 ft 1 kts 264°
2026-05-03 21:04 -45.02145 168.74144 1170 ft 5 kts 208°
2026-05-03 21:05 -45.02157 168.74107 1172 ft 3 kts 259°
2026-05-03 21:05 -45.02161 168.74093 1171 ft 0 kts 248°